Ashtabula, OH

11:13 AM EST on January 17, 2018 (GMT -0500)
Ashtabula County

Weather History for KHZY - May, 2013

Change the Weather History Date:

Monday, May 13, 2013

  Actual Average (KGKJ) Record (KGKJ)
Temperature  
Mean Temperature 40 °F -  
Max Temperature 46 °F 68 °F 86 °F (1991)
Min Temperature 32 °F 43 °F 32 °F (1958)
Degree Days  
Heating Degree Days 25    
Moisture  
Dew Point 25 °F    
Average Humidity 58    
Maximum Humidity 82    
Minimum Humidity 42    
Precipitation  
Precipitation 0.00 in - - ()
Sea Level Pressure  
Sea Level Pressure 30.14 in    
Wind  
Wind Speed 7 mph (NW)    
Max Wind Speed 15 mph    
Max Gust Speed 20 mph    
Visibility 10 miles    
Events      
Averages and records for this station are not official NWS values.
T = Trace of Precipitation, MM = Missing Value Source: NWS Daily Summary

Daily Weather History Graph

Daily Weather History Graph

Search for Another Location

Airport or City:

Trip Planner

Search our weather history database for the weather conditions in past years. The results will help you decide how hot, cold, wet, or windy it might be!

Date:

Astronomy

May. 13, 2013 Rise Set
Actual Time 6:04 AM EDT 8:34 PM EDT
Civil Twilight 5:33 AM EDT 9:05 PM EDT
Nautical Twilight 4:53 AM EDT 9:45 PM EDT
Astronomical Twilight 4:09 AM EDT 10:29 PM EDT
Moon 8:49 AM EDT (5/13) 11:42 PM EDT (5/13)
Length of Visible Light 15h 32m
Length of Day
14h 29m
Waxing Crescent, 12% of the Moon is Illuminated
May 13
Waxing Crescent
May 18
First Quarter
May 25
Full
May 31
Last Quarter
Jun 8
New

Hourly Weather History & Observations

Time (EDT) Temp. Windchill Dew Point Humidity Pressure Visibility Wind Dir Wind Speed Gust Speed Precip Events Conditions
12:53 AM 39.0 °F 35.7 °F 25.0 °F 57% 30.07 in 10.0 mi WNW 4.6 mph - N/A   Overcast
1:53 AM 37.9 °F 31.5 °F 25.0 °F 60% 30.07 in 10.0 mi WNW 9.2 mph - N/A   Mostly Cloudy
2:53 AM 36.0 °F 31.1 °F 21.0 °F 55% 30.06 in 10.0 mi WNW 5.8 mph - N/A   Partly Cloudy
3:53 AM 37.0 °F 31.6 °F 21.9 °F 54% 30.06 in 10.0 mi WNW 6.9 mph - N/A   Mostly Cloudy
4:53 AM 36.0 °F 31.1 °F 21.9 °F 57% 30.07 in 10.0 mi WNW 5.8 mph - N/A   Scattered Clouds
5:53 AM 34.0 °F 29.8 °F 23.0 °F 64% 30.07 in 10.0 mi WNW 4.6 mph - N/A   Scattered Clouds
6:53 AM 35.1 °F 31.0 °F 24.1 °F 64% 30.08 in 10.0 mi WNW 4.6 mph - N/A   Scattered Clouds
7:53 AM 37.0 °F 28.9 °F 24.1 °F 59% 30.10 in 10.0 mi WNW 12.7 mph 19.6 mph N/A   Clear
8:53 AM 39.0 °F 30.6 °F 23.0 °F 53% 30.13 in 10.0 mi NNW 15.0 mph 18.4 mph N/A   Scattered Clouds
9:53 AM 39.0 °F 31.4 °F 24.1 °F 55% 30.15 in 10.0 mi NW 12.7 mph 18.4 mph N/A   Mostly Cloudy
10:53 AM 41.0 °F 36.4 °F 25.0 °F 53% 30.17 in 10.0 mi Variable 6.9 mph - N/A   Mostly Cloudy
11:53 AM 43.0 °F 37.7 °F 25.0 °F 49% 30.17 in 10.0 mi NNW 9.2 mph - N/A   Mostly Cloudy
12:53 PM 42.1 °F 37.7 °F 24.1 °F 49% 30.18 in 10.0 mi NW 6.9 mph 18.4 mph N/A   Overcast
1:53 PM 44.1 °F 39.0 °F 26.1 °F 49% 30.19 in 10.0 mi NW 9.2 mph 17.3 mph N/A   Mostly Cloudy
2:53 PM 46.0 °F 41.9 °F 24.1 °F 42% 30.19 in 10.0 mi NW 8.1 mph 17.3 mph N/A   Scattered Clouds
4:53 PM 45.0 °F 40.6 °F 25.0 °F 46% 30.18 in 10.0 mi WNW 8.1 mph - N/A   Partly Cloudy
5:53 PM 46.0 °F 41.9 °F 26.1 °F 46% 30.18 in 10.0 mi WNW 8.1 mph - N/A   Partly Cloudy
6:53 PM 46.0 °F 43.1 °F 25.0 °F 44% 30.17 in 10.0 mi Variable 5.8 mph - N/A   Clear
8:53 PM 37.9 °F - 28.9 °F 70% 30.19 in 10.0 mi Calm Calm - N/A   Clear
9:53 PM 35.1 °F - 28.9 °F 78% 30.20 in 10.0 mi Calm Calm - N/A   Clear
10:53 PM 34.0 °F - 28.9 °F 82% 30.19 in 10.0 mi Calm Calm - N/A   Clear
11:53 PM 32.0 °F - 27.0 °F 82% 30.18 in 8.0 mi Calm Calm - N/A   Clear